Погода Карасу

Погода Карасу : погода сейчас, прогноз погоды и архив. Всё, что Вы хотите узнать о погоде Карасу!

Поиск расширенной информации на нашем сайте:

Полезная информация: Аренда помещения в краснодаре под хостел недорого.

Другие новости

Новости СМИ2

Главная страница сайта

Новости сайта

02.10.2013

Напоминаем, что на нашем новом сайте вы можете получить высокодетализированные прогнозы погоды по пунктам России, СНГ и мира (включающие важные для авиации метеовеличины, такие как направление и скорость ветра, видимость, явления погоды, количество и форма облачности, нижняя и верхняя граница облачности), а также ознакомиться с разнообразными материалами по авиационной метеорологии и подборкой полезных ссылок на эту тему.

Сайт Метеоцентр.Азия посвящён разработке технологий оптимизации авиаметеорологического обслуживания, включая проектирование и перспективное создание нескольких автоматизированных авиаметеорологических систем:
- система выпуска высокодетальных прогностических карт явлений погоды для нижнего воздушного пространства по России и ближнему зарубежью;
- система верификации прогнозов TAF (выпускаемых синоптиками официальных АМСГ РФ и ближнего зарубежья) и AUTOTAF (выпускаемых сайтом Метеоцентр.Азия) - выявление ошибок, онлайн-сопоставление с фактической погодой METAR, автоматическое внесение коррективов в прогнозы при резком отклонении фактической погоды от прогноза, подсчёт оправдываемости прогнозов по элементам и в целом;
- система обработки, анализа и отображения авиаметеорологической информации для применения провайдерами метеорологической информации.

Рекомендуем: Самая подробная информация пояс верности силиконовый у нас.

Погода Карасу - сегодня

Время (UTC), дата Ветер
(°,м/с) 
Видим.   Явления Облачность Т
(°С)
Тd
(°С)
f(%) Тe
(°С)
Pmin
(гПа)
dP
(гПа)
Po
(мм)
O2
(г/м3)
Тmin Tmax R s Состояние
почвы
03 27.05.17 360 (С) 20000 м    8/0 верхняя 
[Ci fib]
+22.6 +13.9 58 +29  1012.1  750  276           
06 27.05.17 360 (С) 20000 м    9/1 600 м верхняя 
[Cu Sc|Ci fib]
+28.5 +12.9 38 +36  1009.6  -0.6  688  248  +16.1         
09 27.05.17 050 (СВ) 20000 м    4/3 600 м верхняя 
[Cu med, cong|Ci fib]
+29.6 +13.3 37 +38  1008.5  -0.7  687  247           
12 27.05.17 180 (Ю) 20000 м    1/1 600 м 
[Cu Sc]
+30.1 +8.6 26 +31  1007.1  -1.3  686  247           
15 27.05.17 090 (В) 20000 м    1/1 600 м 
[Sc diur, vesp]
+20.4 +15 71 +32  1009.9  -0.1  686  254    +31.1       
18 27.05.17 180 (Ю) н/о    ясно 
+19.3 +11.3 60 +26  1011.2  0.7  687  256    +31.1       
21 27.05.17 090 (В) н/о    ясно 
+17 +10.6 66 +22  1011.1  -0.8  686  258           
00 28.05.17 320 (СЗ) 20000 м    1/0 
+16.2 +8.4 60 +18  1011.2  -0.2  686  259           
03 28.05.17 050 (СВ) 20000 м    ясно 
+22.6 +14.9 62 +31  1009.8  0.9  750  276           
06 28.05.17 320 (СЗ) 20000 м    8/1 600 м верхняя 
[Cu Sc|Ci fib]
+29.2 +15.2 43 +41  1006.6  -0.9  686  246  +15.1         
09 28.05.17 230 (ЮЗ) 20000 м    8/4 600 м верхняя 
[Cu med, cong|Ci fib]
+29.7 +12.4 35 +36  1007  0.3  686  247           
12 28.05.17 050 (СВ) 20000 м    8/8 600 м кучево-дожд. 
[Cb calv]
+26.3 +10.7 38 +30  1007.2  -0.9  685  250           
15 28.05.17 050 (СВ) 20000 м    8/8 600 м 
[Sc]
+23.2 +12.3 50 +30  1009.8  1.6  687  253    +30.1       
18 28.05.17 050 (СВ) н/о    1/0 верхняя 
[Ci fib]
+18.4 +12.1 67 +25  1013.2  1.6  688  257    +30.1       
21 28.05.17 090 (В) н/о    ясно 
+16.2 +9 62 +20  1013.6  -0.5  687  260           
00 29.05.17 тихо ()   20000 м    ясно 
+17.4 +8 54 +18  1013.4  0.2  688  259           
03 29.05.17 050 (СВ) 20000 м    ясно 
+22.8 +11.4 49 +26  1010.4  -0.9  750  277           
06 29.05.17 050 (СВ) 20000 м    1/1 600 м 
[Cu med, cong]
+29.1 +12.9 37 +37  1006.5  -1.6  686  247  +15         
09 29.05.17 050 (СВ) 20000 м    1/1 600 м 
[Cu med, cong]
+31.9 +5.3 19 +32  1003.1  -1.7  684  246           
12 29.05.17 090 (В) 20000 м    9/9 600 м кучево-дожд. 
[Cb calv]
+31.5 +5.1 19 +32  1003.1  -1  684  246           
15 29.05.17 230 (ЮЗ) 20000 м    9/9 600 м кучево-дожд. 
[Cb calv]
+23.9 +13 50 +32  1008  2.5  686  251    +32.7       
18 29.05.17 230 (ЮЗ) н/о    9/9 600 м кучево-дожд. 
[Cb calv]
+23.7 +8.6 38 +25  1009.4  686  253    +32.7       
21 29.05.17 270 (З) н/о    9/9 600 м кучево-дожд. 
[Cb calv]
+22.8 +8.2 39 +23  1008.9  -0.6  686  254           
00 30.05.17 230 (ЮЗ) 20000 м  слаб. ливневой дождь  10/10 600 м кучево-дожд. 
[Cb cap]
+17.8 +12.6 72 +24  1014.9  689  258           
03 30.05.17 090 (В) 20000 м  {ливн. осадки}  9/9 600 м кучево-дожд. 
[Cb calv]
+17 +11.7 71 +22  1017  1.6  690  259         
Время (UTC), дата Ветер
(°,м/с) 
Видим.   Явления Облачность Т
(°С)
Тd
(°С)
f(%) Тe
(°С)
Pmin
(гПа)
dP
(гПа)
Po
(мм)
O2
(г/м3)
Тmin Tmax R s Состояние
почвы

Для получения пояснительной информации подведите курсор к названию столбца.

ПОГОДА Карасу - архив

Всё, что Вы хотите узнать о погоде Карасу - удобно и подробно!

Выберите нужную дату (начиная с 1 января 2015* года) и нажмите кнопку "Найти".
Будут отображены архивные сводки погоды по пункту Карасу, начиная с указанной даты.


Отображать данные в формате CSV (для использования в таблицах Excel)


Внимание! Наш архив погоды предназначен исключительно для личного некоммерческого использования в познавательных целях. Если Вам необходимы официальные справки о состоянии погоды (для производственных, юридических, коммерческих и т.п. целей), обращайтесь в органы Росгидромета.

*Примечание: данная дата относится к архиву по метеостанциям СССР (Россия, СНГ, Балтия).
Архив по метеостанциям Зарубежной Европы и Азии (кроме Китая) хранится 10 дней, по другим регионам земного шара (Китай, Африка, Америка, Австралия, Океания) - 1 день.

Карасу - район местоположения метеостанции


Название, широта, долгота, высота метеостанции:
Карасу 40.7°ш. 72.9°д. 865 м над ур. моря [Кыргызстан]

Дополнительная информация

В oтличие oт бoльшинства пoгoдных сайтoв мы публикуем пoдрoбную метеoинфoрмацию в детальнoм прoфессиoнальнoм фoрмате.

Характеристики температуры и влажнoсти вoздуха измеряются на высoте 2 м в тени вдали oт зданий и деревьев.
Скoрoсть ветра измеряется на высoте 10 м (на урoвне рoста челoвека скoрoсть ветра ниже в 1.5-2 раза). Если метеoстанция нахoдится в гoрoде или в лесу, тo скoрoсть ветра занижена на 2-4 м/с пo сравнению с oткрытым местoм. Скoрoсть ветра над акватoриями крупных рек и oзёр, а также на вершинах хoлмoв на 2-5 м/с выше, чем в oбычных услoвиях.
Атмoсфернoе давление в разных тoчках местнoсти мoжет значительнo oтличаться oт давления на метеoстанции, в зависимoсти oт услoвий рельефа (при пoдъёме на 10 м давление пoнижается примернo на 1 мм рт.ст.).